Location: Unspecified
(0.0000°N, 0.0000°E)
Time: 09:15:25
(UTC+00:00)

Cosmos 2333 Rocket - Pass Details

Date: 23 December 2025
Orbit: 837 x 865 km, 70.8° (Epoch: 14 January)

Event Time Altitude Azimuth Distance (km) Brightness Sun altitude
Exits shadow 03:29:52 23° 52° (NE) 1,733 4.0 -33.8°
Maximum altitude 03:31:17 25° 74° (ENE) 1,634 4.0 -33.5°
Drops below altitude 10° 03:35:51 10° 128° (SE) 2,462 5.4 -32.5°
Sets 03:38:41 0° 141° (SE) 3,395 6.3 -31.8°
